Wind_Speed
27 27 27 28 28 29 28 27 26 26 27 28 27 26 27 27 25 26 25 23 22 21 21 20 20 19 18 17 16 16 15 15 14 14 14 13 13 13 12 12 12 11 10 10 10 9 8 8 8
28 28 28 29 30 29 28 28 28 28 28 29 29 29 29 29 28 28 27 26 24 23 22 22 21 21 20 19 18 17 17 16 16 16 15 14 14 14 13 13 13 12 11 11 11 11 10 10 10
28 28 29 30 29 29 29 29 29 29 29 30 31 31 31 31 30 30 29 28 27 26 25 24 23 22 21 20 20 19 18 18 18 17 16 16 15 15 14 14 13 13 13 12 12 12 12 11 11
29 29 30 30 29 29 30 30 30 31 31 32 33 33 32 32 32 32 31 30 29 28 26 25 24 23 22 22 21 20 20 20 19 19 19 18 17 17 16 15 15 14 14 13 13 13 13 13 12
29 29 29 30 29 30 31 31 31 32 33 33 34 34 33 33 34 33 33 31 30 29 28 27 26 25 24 23 22 21 21 21 21 21 21 20 19 19 18 18 17 16 16 16 15 15 15 14 14
30 30 30 29 30 30 31 31 32 32 33 33 34 33 33 34 34 34 34 33 33 32 30 28 27 26 25 25 24 23 22 22 22 21 21 21 21 21 20 20 20 19 18 18 18 17 17 16 16
30 31 30 30 31 30 31 32 32 32 32 32 33 34 33 34 34 34 34 34 34 33 31 30 30 29 28 26 26 25 24 24 23 22 22 22 22 21 21 21 21 21 21 21 20 20 19 19 19
31 31 31 31 32 30 31 32 32 32 32 32 33 34 34 34 35 34 33 34 34 34 32 31 31 30 29 28 27 26 26 25 24 24 24 24 24 23 23 23 23 23 22 22 22 22 22 22 22
31 32 31 32 32 31 31 31 31 32 33 33 33 34 34 35 35 34 34 34 34 33 33 32 32 31 31 30 29 29 28 27 26 26 25 25 25 25 25 25 25 25 24 24 24 24 24 24 24
30 31 31 32 32 31 30 30 30 31 33 33 34 35 35 35 36 36 35 34 35 35 34 33 33 33 33 32 31 31 31 29 28 28 27 27 27 27 27 27 27 27 26 26 26 26 26 26 26
29 29 30 30 31 31 30 31 31 31 32 33 34 35 36 36 36 35 35 35 35 35 35 35 35 35 35 34 34 33 32 31 31 30 30 30 29 29 28 28 29 29 28 28 28 28 28 28 29
28 28 28 28 28 29 30 31 32 33 32 32 33 34 35 36 36 36 36 36 35 35 36 36 36 36 36 35 35 35 34 34 33 33 32 32 31 31 31 30 30 31 30 29 29 29 29 29 30
27 27 27 27 26 27 28 30 32 32 32 32 32 33 34 35 35 36 37 38 37 36 37 38 37 37 37 36 36 36 35 35 35 35 34 34 33 33 33 33 33 32 32 31 31 31 31 31 31
25 26 26 26 25 25 26 27 30 30 30 31 31 32 34 35 35 36 37 38 38 38 38 39 38 38 38 38 38 38 37 37 36 36 36 36 36 35 35 35 34 35 35 34 34 34 33 33 34
24 25 25 25 25 25 26 26 28 28 29 30 31 32 33 34 35 36 37 38 38 38 38 39 39 38 39 39 40 40 40 39 38 38 38 38 38 38 37 37 37 37 37 36 36 36 36 36 36
24 25 25 25 25 26 26 26 26 28 28 29 31 32 33 33 34 35 37 38 38 39 39 40 40 40 40 40 41 41 42 41 41 40 40 40 40 40 40 39 39 39 38 38 38 38 37 38 38
24 25 25 25 24 25 26 25 25 26 28 29 31 32 32 32 34 35 36 37 38 39 40 40 41 42 42 41 41 42 43 43 43 43 42 42 42 42 42 41 41 40 40 40 40 40 40 40 40
23 24 24 24 24 24 26 25 25 25 26 27 29 31 31 32 33 34 35 37 37 38 39 39 40 41 42 42 42 43 44 44 44 44 44 44 44 44 44 43 43 42 42 42 42 42 42 42 42
22 23 23 24 23 24 25 25 24 25 25 26 28 30 31 33 34 34 35 37 37 37 38 39 40 41 41 43 43 43 43 43 44 44 44 45 45 45 45 44 44 45 44 45 44 44 44 44 44
22 23 23 23 23 24 24 24 24 24 25 25 26 28 29 31 32 34 35 37 37 37 38 39 40 40 41 43 44 44 43 44 45 45 45 46 46 45 45 45 44 45 45 45 45 44 44 45 45
23 23 23 23 23 23 24 23 23 23 24 25 25 26 28 29 31 32 33 35 36 36 37 38 40 41 41 43 43 43 44 44 45 45 45 46 45 45 46 46 46 46 47 46 46 46 46 46 46
22 22 23 22 22 22 23 24 22 22 23 23 24 25 27 29 31 31 33 34 36 36 36 37 38 39 40 40 41 41 41 42 44 45 46 46 45 45 46 47 47 47 47 47 47 47 47 47 46
22 22 22 22 22 22 21 23 21 21 22 23 24 25 26 28 30 31 33 34 35 35 35 37 37 37 38 38 39 40 41 42 42 44 46 46 45 44 45 46 46 47 47 47 48 48 47 46 46
22 21 21 22 21 21 20 22 21 20 21 22 23 25 26 28 29 30 31 33 34 34 35 38 38 38 39 39 39 40 42 43 44 44 45 46 45 46 46 45 45 46 47 46 45 46 46 46 46
22 21 21 21 21 21 20 21 21 21 22 23 23 24 25 27 28 28 29 30 32 34 34 35 36 37 39 39 39 40 42 43 43 44 44 44 44 45 46 46 46 46 46 45 46 46 47 46 46
21 21 21 22 21 22 22 22 22 21 22 23 24 25 25 26 27 28 29 30 32 33 34 34 36 37 38 39 39 40 40 42 43 43 44 44 44 44 46 47 47 48 48 48 48 48 48 48 47
21 21 21 22 22 23 22 22 22 22 22 23 25 25 25 26 27 28 30 31 33 34 34 35 35 35 36 38 39 40 41 41 42 43 44 45 45 44 45 46 47 48 48 48 48 47 47 47 47
22 21 21 22 22 23 23 23 22 22 23 24 25 26 26 27 28 29 30 31 33 33 34 35 36 36 37 38 38 39 40 41 41 42 42 44 44 43 44 44 44 46 47 47 48 48 47 48 48
21 21 21 22 23 24 24 24 23 23 23 25 26 27 27 28 29 30 31 32 33 33 33 33 35 36 37 38 39 40 40 41 42 42 43 42 43 45 45 46 46 46 47 48 49 49 49 48 48
22 22 22 23 24 24 25 25 24 23 23 25 26 27 28 29 30 31 31 32 33 33 33 33 34 35 37 38 38 39 40 41 41 42 43 43 44 45 46 47 48 48 48 48 48 49 49 49 49
Wind_Direction
259 259 259 260 261 260 261 261 260 256 254 255 254 252 252 252 253 254 253 251 249 247 245 245 246 247 248 248 247 246 246 247 248 248 247 245 245 246 244 243 243 244 244 244 247 249 252 254 256
260 260 260 260 261 263 263 262 260 257 256 254 251 250 251 252 251 253 252 250 248 248 247 245 246 247 246 246 246 247 247 248 248 248 247 246 245 247 245 243 245 246 246 248 250 251 253 255 257
259 260 261 261 262 262 262 261 260 258 257 254 251 249 250 251 250 251 250 250 247 247 246 245 246 245 245 245 246 247 248 248 249 248 248 247 247 247 247 246 247 247 247 249 252 254 255 258 261
259 260 261 262 262 261 261 261 260 259 258 255 252 250 249 249 249 248 248 248 248 246 245 244 245 245 245 246 247 248 249 249 248 247 247 247 246 247 249 249 248 248 249 250 254 256 257 259 262
259 260 261 262 262 261 261 262 262 259 258 256 253 251 249 248 247 246 246 245 246 246 245 243 243 245 245 246 247 248 248 248 249 248 247 247 247 247 249 250 250 251 252 253 256 257 259 261 263
259 259 261 262 262 261 260 261 261 259 256 253 252 250 248 248 247 246 245 245 244 245 246 243 243 243 245 247 249 248 249 248 248 247 247 249 249 248 249 252 252 252 254 255 257 258 259 262 264
260 260 261 263 263 262 261 261 260 258 256 253 251 250 248 249 247 246 245 244 244 245 245 243 243 243 245 247 248 249 250 250 249 249 249 249 250 250 251 252 253 255 255 256 257 258 259 261 264
259 261 261 263 264 262 261 260 259 257 254 252 251 251 249 248 247 246 246 243 242 244 243 243 243 244 245 246 247 247 247 248 249 250 250 250 251 252 253 254 254 255 256 256 257 258 259 261 263
261 262 263 263 262 261 261 260 259 257 255 253 252 251 250 248 246 245 244 242 241 243 244 244 243 245 246 246 247 248 248 249 249 249 250 251 252 253 255 257 257 257 257 258 259 259 260 261 263
264 265 265 265 263 262 260 259 259 257 254 253 251 251 249 246 245 244 242 241 242 243 244 244 244 245 246 246 247 248 249 250 250 249 251 252 253 255 257 258 259 258 258 259 260 261 262 262 263
266 266 266 266 264 262 260 260 257 258 256 255 254 252 249 246 244 243 242 241 242 243 244 244 244 245 246 246 246 248 249 250 250 249 251 252 253 256 258 258 259 259 260 261 262 262 263 263 263
267 266 266 265 265 264 261 259 257 257 257 256 254 252 249 247 246 245 244 243 243 245 244 243 243 244 245 246 246 247 248 249 250 249 250 251 252 255 257 258 259 261 261 262 262 263 263 264 265
267 266 265 265 266 266 264 261 258 258 258 256 255 253 250 248 246 245 245 246 246 246 244 243 243 245 245 246 247 248 248 249 250 250 251 252 254 256 258 258 259 260 261 261 263 264 264 265 266
267 264 263 265 266 267 267 264 262 260 258 256 255 254 252 250 248 247 247 246 246 247 246 244 243 245 246 247 248 249 248 249 250 251 252 253 255 256 258 258 259 262 263 262 262 263 264 265 265
267 266 265 267 268 267 267 266 264 262 259 257 257 256 254 251 249 248 247 246 246 247 246 245 245 246 248 249 249 249 249 250 252 253 252 253 255 256 258 259 259 261 261 261 263 264 264 265 265
268 269 268 268 269 269 269 269 266 263 261 260 259 258 256 253 251 250 248 246 247 248 248 248 247 248 249 250 250 250 250 250 251 253 253 253 255 256 258 259 259 260 260 261 263 264 265 265 265
269 271 272 271 271 272 272 271 267 264 262 261 261 259 257 253 252 251 250 248 248 248 248 248 249 250 250 251 251 251 250 250 252 253 253 253 254 255 258 260 260 261 261 262 263 265 266 266 266
272 271 273 272 271 271 272 273 271 269 267 263 260 258 256 253 253 253 251 250 251 250 249 250 251 252 251 251 252 252 252 252 252 252 253 254 255 256 258 260 260 261 262 262 263 265 265 266 266
273 273 274 273 271 272 272 273 271 270 269 266 262 259 255 254 254 254 253 251 253 252 250 251 252 252 252 252 252 252 251 252 252 253 254 254 255 257 258 260 261 261 262 263 264 265 265 266 267
275 274 274 273 272 273 274 271 271 269 269 268 268 262 257 255 255 255 254 253 254 253 251 252 253 253 253 253 253 252 252 252 253 253 254 254 255 257 258 259 260 261 262 263 263 265 265 266 267
275 276 275 275 274 275 276 272 270 269 268 269 269 266 261 259 258 256 255 254 255 255 253 252 252 253 254 253 254 252 252 253 253 253 253 254 256 257 258 259 260 261 261 262 263 265 265 266 267
275 276 277 277 276 276 276 274 271 272 270 269 268 266 264 262 261 260 257 255 256 257 256 254 253 253 253 253 253 252 252 252 252 253 253 254 254 256 257 259 259 260 261 262 264 265 266 266 267
275 276 277 277 275 276 277 278 275 272 271 271 270 269 267 266 265 263 261 259 258 258 257 255 254 253 254 254 253 253 252 254 255 255 255 254 254 255 257 258 258 259 261 263 265 265 266 266 267
275 275 275 276 275 275 276 277 278 275 275 275 273 271 269 267 265 264 263 261 260 259 259 258 254 254 255 254 255 255 254 254 256 258 257 255 255 256 256 259 259 260 261 263 264 264 266 266 268
273 274 276 277 276 276 276 277 280 278 276 275 275 273 272 269 268 267 266 263 262 261 262 259 256 257 256 255 256 257 255 256 257 259 259 256 257 258 259 260 261 261 261 263 265 266 266 267 268
273 273 276 278 280 278 276 278 280 280 277 276 276 277 276 274 272 269 268 266 265 263 265 261 259 259 257 257 256 258 258 258 258 259 259 258 258 259 260 260 261 262 262 264 266 266 266 267 268
273 273 275 278 281 282 280 282 282 282 280 278 277 279 278 277 276 272 269 268 267 267 265 262 260 259 259 259 259 261 261 262 261 259 259 259 259 261 262 262 263 263 263 265 267 267 267 267 268
274 275 275 277 282 284 282 283 286 286 284 282 280 279 279 278 277 276 274 273 273 270 267 263 262 260 260 261 262 263 264 264 264 262 260 259 260 262 263 264 266 265 265 265 266 267 267 267 268
272 273 275 276 278 281 284 283 287 287 286 285 284 282 280 277 277 276 275 274 275 272 271 267 264 264 263 264 264 266 266 266 266 266 263 262 262 262 263 264 266 267 266 267 266 266 266 267 268
272 275 276 276 278 280 283 285 286 288 285 283 283 284 282 280 278 278 277 276 277 276 274 270 267 266 266 266 266 266 267 266 266 267 265 264 263 264 264 264 265 266 267 267 267 267 266 267 268
Height
5793 5794 5795 5796 5797 5798 5799 5801 5801 5802 5803 5805 5806 5808 5809 5811 5813 5816 5816 5817 5819 5821 5823 5824 5825 5826 5827 5829 5830 5831 5832 5833 5833 5834 5835 5836 5837 5837 5838 5839 5840 5840 5841 5842 5843 5843 5844 5844 5844
5788 5789 5790 5791 5791 5793 5795 5795 5795 5796 5798 5799 5801 5803 5804 5806 5808 5809 5810 5812 5815 5817 5819 5820 5822 5823 5824 5825 5827 5828 5829 5830 5831 5832 5833 5833 5834 5835 5836 5837 5838 5838 5839 5840 5841 5842 5842 5842 5843
5782 5783 5784 5785 5786 5788 5789 5789 5789 5790 5792 5793 5795 5797 5799 5801 5803 5803 5805 5807 5810 5812 5814 5816 5818 5819 5820 5822 5823 5825 5826 5827 5828 5829 5830 5831 5832 5833 5834 5835 5836 5837 5837 5838 5839 5839 5840 5840 5840
5776 5777 5778 5780 5781 5782 5782 5783 5783 5784 5785 5786 5788 5790 5792 5794 5796 5797 5799 5802 5805 5807 5809 5812 5814 5815 5817 5818 5820 5821 5822 5823 5824 5825 5826 5828 5829 5830 5831 5832 5833 5834 5835 5836 5836 5837 5837 5838 5838
5769 5770 5771 5772 5774 5775 5776 5776 5777 5778 5779 5780 5781 5783 5785 5787 5789 5791 5793 5796 5799 5802 5804 5807 5809 5811 5812 5814 5816 5817 5818 5819 5821 5822 5823 5824 5825 5826 5828 5829 5830 5831 5832 5833 5834 5834 5835 5835 5835
5763 5764 5765 5766 5767 5768 5769 5769 5770 5771 5772 5773 5774 5776 5778 5780 5782 5784 5787 5790 5793 5795 5799 5801 5804 5806 5808 5809 5811 5812 5814 5815 5816 5818 5819 5820 5822 5823 5824 5825 5827 5828 5829 5830 5831 5831 5832 5832 5832
5757 5757 5758 5759 5759 5761 5761 5762 5762 5764 5765 5766 5767 5769 5771 5772 5775 5777 5780 5783 5787 5789 5793 5796 5798 5801 5803 5804 5806 5807 5809 5810 5812 5813 5815 5816 5818 5819 5820 5822 5823 5824 5825 5826 5827 5828 5828 5829 5829
5749 5750 5751 5752 5751 5753 5754 5754 5755 5756 5758 5759 5760 5762 5764 5765 5768 5771 5773 5776 5780 5783 5787 5790 5793 5795 5798 5799 5801 5802 5804 5806 5807 5809 5810 5812 5813 5815 5816 5817 5819 5820 5821 5822 5823 5823 5824 5825 5825
5741 5744 5744 5744 5743 5745 5746 5746 5748 5748 5750 5751 5752 5754 5756 5758 5760 5764 5767 5769 5774 5778 5780 5784 5786 5789 5791 5794 5795 5797 5799 5800 5802 5804 5805 5807 5808 5810 5811 5813 5814 5815 5816 5817 5818 5819 5819 5820 5821
5735 5736 5737 5737 5736 5737 5738 5739 5740 5741 5742 5743 5745 5746 5748 5751 5753 5756 5760 5763 5767 5771 5774 5777 5780 5782 5785 5787 5789 5791 5793 5795 5796 5798 5800 5802 5803 5805 5806 5807 5809 5810 5811 5812 5813 5814 5814 5815 5815
5728 5729 5730 5729 5729 5729 5730 5731 5731 5732 5734 5736 5737 5738 5741 5743 5746 5750 5753 5757 5760 5763 5767 5769 5773 5775 5778 5780 5782 5784 5786 5788 5790 5792 5794 5796 5797 5799 5800 5802 5803 5804 5805 5806 5807 5808 5808 5809 5810
5721 5722 5722 5722 5722 5723 5723 5723 5724 5724 5727 5728 5729 5730 5733 5737 5740 5743 5746 5749 5752 5756 5759 5762 5765 5767 5770 5772 5775 5777 5779 5781 5783 5785 5787 5789 5791 5793 5794 5795 5796 5797 5798 5800 5801 5801 5802 5803 5804
5714 5715 5715 5716 5716 5715 5716 5715 5716 5718 5719 5720 5721 5723 5726 5729 5732 5735 5738 5742 5745 5748 5751 5754 5757 5759 5762 5764 5767 5769 5771 5773 5775 5777 5779 5782 5784 5785 5787 5788 5789 5790 5792 5793 5794 5795 5796 5797 5797
5708 5708 5709 5709 5709 5709 5709 5708 5709 5711 5712 5713 5714 5716 5718 5721 5724 5727 5731 5734 5737 5740 5743 5746 5749 5751 5754 5756 5758 5761 5763 5765 5767 5769 5771 5774 5776 5777 5779 5780 5782 5783 5784 5786 5787 5788 5788 5789 5790
5702 5702 5703 5703 5703 5702 5702 5702 5703 5704 5704 5706 5707 5709 5710 5713 5715 5719 5722 5725 5729 5731 5734 5737 5740 5742 5745 5747 5749 5752 5754 5756 5759 5761 5763 5765 5767 5769 5770 5772 5774 5775 5776 5777 5778 5779 5780 5781 5782
5696 5696 5696 5697 5696 5696 5697 5697 5697 5697 5697 5699 5700 5701 5703 5705 5707 5710 5713 5717 5720 5723 5725 5728 5731 5734 5736 5738 5740 5743 5745 5747 5750 5752 5754 5756 5757 5759 5761 5763 5765 5766 5767 5768 5770 5771 5772 5772 5773
5690 5690 5690 5691 5690 5689 5689 5689 5690 5690 5691 5692 5693 5694 5695 5697 5699 5702 5705 5708 5710 5713 5716 5719 5722 5724 5726 5728 5731 5733 5735 5738 5740 5742 5744 5746 5748 5750 5752 5753 5755 5756 5758 5759 5761 5762 5762 5763 5764
5685 5684 5684 5684 5684 5683 5683 5683 5684 5684 5684 5684 5685 5686 5688 5689 5692 5694 5696 5699 5701 5704 5707 5709 5711 5714 5716 5718 5721 5723 5725 5727 5729 5732 5734 5736 5738 5740 5742 5743 5745 5747 5748 5750 5751 5752 5753 5753 5754
5678 5678 5678 5678 5678 5677 5677 5677 5677 5677 5677 5677 5678 5679 5680 5682 5684 5685 5688 5690 5692 5694 5697 5700 5702 5704 5706 5708 5710 5713 5715 5717 5719 5721 5724 5726 5728 5730 5732 5733 5735 5737 5738 5739 5740 5741 5743 5743 5744
5673 5672 5672 5672 5672 5672 5671 5671 5671 5671 5671 5671 5671 5671 5672 5674 5676 5677 5679 5681 5683 5685 5687 5689 5691 5693 5695 5697 5699 5702 5704 5706 5708 5711 5713 5715 5717 5719 5721 5723 5724 5726 5727 5728 5730 5731 5732 5733 5734
5667 5667 5667 5666 5666 5666 5665 5665 5665 5665 5665 5665 5665 5665 5666 5667 5668 5669 5670 5672 5674 5675 5677 5679 5681 5683 5685 5686 5688 5691 5693 5695 5697 5700 5702 5704 5706 5708 5710 5712 5713 5715 5716 5717 5719 5720 5721 5722 5723
5662 5662 5661 5661 5660 5660 5660 5659 5660 5660 5660 5660 5660 5660 5660 5660 5661 5661 5662 5663 5665 5666 5668 5669 5671 5673 5674 5675 5678 5680 5682 5685 5687 5689 5691 5693 5695 5698 5699 5700 5702 5703 5705 5706 5707 5708 5709 5710 5711
5657 5657 5657 5656 5655 5655 5655 5654 5655 5654 5654 5655 5655 5655 5654 5654 5654 5655 5655 5655 5656 5658 5659 5660 5662 5663 5665 5665 5668 5670 5672 5674 5676 5678 5681 5683 5685 5686 5688 5689 5690 5692 5693 5695 5695 5696 5697 5699 5700
5652 5652 5651 5651 5650 5650 5650 5649 5649 5649 5649 5649 5649 5649 5648 5648 5648 5649 5649 5649 5649 5650 5650 5651 5653 5654 5655 5657 5658 5660 5662 5664 5666 5668 5670 5672 5674 5675 5677 5678 5679 5680 5682 5683 5684 5685 5686 5687 5688
5647 5647 5646 5645 5645 5645 5645 5644 5644 5644 5644 5644 5643 5643 5642 5642 5642 5642 5642 5642 5642 5643 5643 5643 5644 5645 5646 5647 5649 5650 5652 5653 5655 5657 5659 5661 5663 5664 5666 5667 5668 5669 5670 5671 5672 5673 5674 5675 5675
5641 5641 5642 5641 5640 5640 5640 5639 5640 5640 5639 5638 5637 5637 5636 5636 5636 5636 5636 5635 5635 5634 5634 5634 5635 5636 5637 5638 5639 5640 5642 5643 5645 5646 5648 5650 5651 5653 5654 5655 5656 5657 5658 5659 5660 5660 5661 5662 5663
5636 5636 5636 5636 5635 5635 5634 5634 5635 5634 5633 5632 5631 5630 5629 5629 5629 5628 5628 5628 5627 5626 5626 5626 5626 5627 5628 5629 5629 5630 5632 5633 5634 5635 5637 5638 5639 5640 5642 5642 5643 5644 5645 5646 5647 5648 5649 5650 5650
5631 5631 5631 5630 5629 5628 5629 5629 5629 5628 5627 5627 5626 5624 5623 5623 5622 5621 5621 5620 5619 5618 5617 5617 5617 5618 5619 5619 5620 5621 5622 5622 5623 5624 5625 5627 5628 5629 5630 5631 5631 5632 5633 5633 5634 5635 5636 5637 5638
5625 5625 5625 5624 5624 5624 5623 5625 5623 5622 5621 5620 5619 5618 5617 5616 5614 5613 5613 5612 5610 5609 5608 5607 5608 5608 5609 5609 5610 5610 5611 5611 5612 5613 5614 5615 5616 5617 5618 5619 5620 5620 5620 5621 5622 5623 5623 5624 5624
5619 5619 5619 5619 5619 5618 5617 5620 5617 5616 5615 5614 5612 5611 5609 5608 5607 5605 5604 5603 5602 5600 5599 5599 5599 5599 5599 5599 5599 5600 5600 5601 5601 5602 5602 5604 5605 5605 5606 5606 5607 5608 5608 5608 5609 5609 5610 5611 5612